Weather History for PAWN - November, 2012

Change the Weather History Date:

Friday, November 2, 2012

  Actual Average (WUND) Record (WUND)
Temperature  
Mean Temperature 10 °F -  
Max Temperature 15 °F - - (-1)
Min Temperature 6 °F - - (-1)
Degree Days  
Heating Degree Days 54    
Moisture  
Dew Point 4 °F    
Average Humidity 71    
Maximum Humidity 85    
Minimum Humidity 53    
Precipitation  
Precipitation 0.00 in - - ()
Sea Level Pressure  
Sea Level Pressure 30.23 in    
Wind  
Wind Speed 8 mph (North)    
Max Wind Speed 22 mph    
Max Gust Speed 28 mph    
Visibility 10 miles    
Events      
Averages and records for this station are not official NWS values.
T = Trace of Precipitation, MM = Missing Value Source: NWS Daily Summary

Daily Weather History Graph

Daily Weather History Graph

Search for Another Location

Airport or City:

Trip Planner

Search our weather history database for the weather conditions in past years. The results will help you decide how hot, cold, wet, or windy it might be!

Date:

Astronomy

Nov. 02, 2012 Rise Set
Actual Time 11:06 AM AKDT 6:03 PM AKDT
Civil Twilight 10:01 AM AKDT 7:07 PM AKDT
Nautical Twilight 8:55 AM AKDT 8:14 PM AKDT
Astronomical Twilight 7:51 AM AKDT 9:17 PM AKDT
Moon 7:31 PM AKDT (11/2) 4:07 PM AKDT (11/2)
Length of Visible Light 9h 06m
Length of Day
6h 56m
Waning Gibbous, 86% of the Moon is Illuminated
Nov 2
Waning Gibbous
Nov 6
Last Quarter
Nov 13
New
Nov 20
First Quarter
Nov 28
Full

Hourly Weather History & Observations

Time (AKDT) Temp. Windchill Dew Point Humidity Pressure Visibility Wind Dir Wind Speed Gust Speed Precip Events Conditions
12:16 AM 10.4 °F 4.0 °F 6.8 °F 85% 30.25 in 10.0 mi NNE 3.5 mph - N/A   Overcast
12:36 AM 10.4 °F 4.0 °F 6.8 °F 85% 30.26 in 10.0 mi NNE 3.5 mph - N/A   Overcast
12:56 AM 12.2 °F 6.1 °F 6.8 °F 79% 30.25 in 10.0 mi North 3.5 mph - N/A   Overcast
1:16 AM 12.2 °F 6.1 °F 6.8 °F 79% 30.25 in 10.0 mi North 3.5 mph - N/A   Overcast
1:36 AM 12.2 °F 6.1 °F 6.8 °F 79% 30.24 in 10.0 mi North 3.5 mph - N/A   Overcast
1:56 AM 12.2 °F - 6.8 °F 79% 30.24 in 10.0 mi Calm Calm - N/A   Overcast
2:16 AM 12.2 °F 6.1 °F 8.6 °F 85% 30.24 in 10.0 mi North 3.5 mph - N/A   Overcast
2:36 AM 12.2 °F - 6.8 °F 79% 30.23 in 10.0 mi Calm Calm - N/A   Overcast
2:56 AM 12.2 °F 4.3 °F 8.6 °F 85% 30.23 in 10.0 mi North 4.6 mph - N/A   Scattered Clouds
3:16 AM 12.2 °F 4.3 °F 6.8 °F 79% 30.23 in 10.0 mi North 4.6 mph - N/A   Mostly Cloudy
3:36 AM 12.2 °F 2.9 °F 6.8 °F 79% 30.23 in 10.0 mi North 5.8 mph - N/A   Scattered Clouds
3:56 AM 12.2 °F 1.7 °F 8.6 °F 85% 30.22 in 10.0 mi North 6.9 mph - N/A   Partly Cloudy
4:16 AM 12.2 °F 2.9 °F 8.6 °F 85% 30.22 in 10.0 mi NNW 5.8 mph - N/A   Partly Cloudy
4:36 AM 12.2 °F 2.9 °F 8.6 °F 85% 30.22 in 10.0 mi NNW 5.8 mph - N/A   Partly Cloudy
4:56 AM 12.2 °F 1.7 °F 8.6 °F 85% 30.21 in 10.0 mi NNW 6.9 mph - N/A   Scattered Clouds
5:16 AM 10.4 °F 0.8 °F 6.8 °F 85% 30.21 in 10.0 mi North 5.8 mph - N/A   Partly Cloudy
5:36 AM 8.6 °F -1.3 °F 5.0 °F 85% 30.21 in 10.0 mi North 5.8 mph - N/A   Mostly Cloudy
5:56 AM 10.4 °F 0.8 °F 6.8 °F 85% 30.20 in 10.0 mi NNW 5.8 mph - N/A   Mostly Cloudy
6:16 AM 10.4 °F -0.4 °F 6.8 °F 85% 30.21 in 10.0 mi NNW 6.9 mph - N/A   Mostly Cloudy
6:36 AM 8.6 °F -2.6 °F 5.0 °F 85% 30.21 in 10.0 mi NNW 6.9 mph - N/A   Partly Cloudy
6:56 AM 8.6 °F -3.7 °F 5.0 °F 85% 30.21 in 10.0 mi NNW 8.1 mph - N/A   Clear
7:16 AM 8.6 °F -1.3 °F 5.0 °F 85% 30.21 in 10.0 mi NNW 5.8 mph - N/A   Clear
7:36 AM 6.8 °F -6.9 °F 3.2 °F 85% 30.20 in 10.0 mi NNW 9.2 mph - N/A   Clear
7:56 AM 8.6 °F -4.7 °F 3.2 °F 79% 30.21 in 10.0 mi North 9.2 mph - N/A   Clear
8:16 AM 10.4 °F -1.5 °F 6.8 °F 85% 30.21 in 10.0 mi NNW 8.1 mph - N/A   Clear
8:36 AM 12.2 °F -0.2 °F 6.8 °F 79% 30.21 in 10.0 mi NNE 9.2 mph - N/A   Clear
8:56 AM 10.4 °F -4.1 °F 6.8 °F 85% 30.21 in 10.0 mi North 11.5 mph - N/A   Clear
9:16 AM 12.2 °F -1.8 °F 6.8 °F 79% 30.22 in 10.0 mi NNW 11.5 mph - N/A   Clear
9:36 AM 12.2 °F -1.8 °F 6.8 °F 79% 30.22 in 10.0 mi NW 11.5 mph - N/A   Clear
9:56 AM 10.4 °F -0.4 °F 3.2 °F 73% 30.22 in 10.0 mi NW 6.9 mph - N/A   Clear
10:16 AM 12.2 °F -1.0 °F 6.8 °F 79% 30.22 in 10.0 mi North 10.4 mph - N/A   Clear
10:36 AM 10.4 °F -1.5 °F 3.2 °F 73% 30.23 in 10.0 mi NW 8.1 mph - N/A   Clear
10:56 AM 12.2 °F -2.5 °F 6.8 °F 79% 30.23 in 10.0 mi NW 12.7 mph - N/A   Clear
11:16 AM 12.2 °F -3.7 °F 5.0 °F 73% 30.23 in 10.0 mi North 15.0 mph - N/A   Clear
11:36 AM 12.2 °F -0.2 °F 5.0 °F 73% 30.24 in 10.0 mi NNE 9.2 mph - N/A   Clear
11:56 AM 12.2 °F -1.8 °F 5.0 °F 73% 30.23 in 10.0 mi NNE 11.5 mph - N/A   Clear
12:16 PM 14.0 °F -2.0 °F 5.0 °F 67% 30.23 in 10.0 mi North 16.1 mph 21.9 mph N/A   Clear
12:36 PM 14.0 °F -3.0 °F 3.2 °F 62% 30.23 in 10.0 mi NNE 18.4 mph 25.3 mph N/A   Clear
12:56 PM 14.0 °F -3.9 °F 3.2 °F 62% 30.23 in 10.0 mi North 20.7 mph 26.5 mph N/A   Clear
1:16 PM 15.8 °F -1.9 °F 3.2 °F 58% 30.23 in 10.0 mi NNE 21.9 mph 27.6 mph N/A   Clear
1:36 PM 15.8 °F 0.3 °F 3.2 °F 58% 30.23 in 10.0 mi NNE 16.1 mph 24.2 mph N/A   Clear
1:56 PM 15.8 °F 1.4 °F 3.2 °F 58% 30.24 in 10.0 mi NNE 13.8 mph 21.9 mph N/A   Clear
2:16 PM 15.8 °F 0.9 °F 1.4 °F 53% 30.23 in 10.0 mi NNE 15.0 mph 23.0 mph N/A   Clear
2:36 PM 15.8 °F 1.4 °F 1.4 °F 53% 30.24 in 10.0 mi NNE 13.8 mph 23.0 mph N/A   Clear
2:56 PM 15.8 °F 0.3 °F 3.2 °F 58% 30.24 in 10.0 mi North 16.1 mph 20.7 mph N/A   Clear
3:16 PM 15.8 °F 0.3 °F 3.2 °F 58% 30.23 in 10.0 mi NNE 16.1 mph 24.2 mph N/A   Clear
3:36 PM 15.8 °F -0.6 °F 3.2 °F 58% 30.23 in 10.0 mi NNE 18.4 mph 24.2 mph N/A   Clear
3:56 PM 15.8 °F 0.3 °F 3.2 °F 58% 30.22 in 10.0 mi North 16.1 mph 26.5 mph N/A   Clear
4:16 PM 15.8 °F 1.4 °F 3.2 °F 58% 30.22 in 10.0 mi North 13.8 mph 27.6 mph N/A   Clear
4:36 PM 15.8 °F 0.9 °F 3.2 °F 58% 30.22 in 10.0 mi NNE 15.0 mph 18.4 mph N/A   Clear
4:56 PM 15.8 °F 2.7 °F 3.2 °F 58% 30.22 in 10.0 mi North 11.5 mph 19.6 mph N/A   Clear
5:16 PM 15.8 °F 0.3 °F 3.2 °F 58% 30.21 in 10.0 mi North 16.1 mph - N/A   Clear
5:36 PM 14.0 °F -0.2 °F 3.2 °F 62% 30.22 in 10.0 mi NNE 12.7 mph 17.3 mph N/A   Clear
5:56 PM 15.8 °F 4.2 °F 3.2 °F 58% 30.22 in 10.0 mi North 9.2 mph - N/A   Clear
6:16 PM 14.0 °F 2.0 °F 3.2 °F 62% 30.22 in 10.0 mi North 9.2 mph - N/A   Clear
6:36 PM 14.0 °F -0.8 °F 3.2 °F 62% 30.22 in 10.0 mi North 13.8 mph 17.3 mph N/A   Clear
6:56 PM 14.0 °F -0.8 °F 3.2 °F 62% 30.22 in 10.0 mi NNE 13.8 mph - N/A   Clear
7:16 PM 14.0 °F -0.2 °F 3.2 °F 62% 30.22 in 10.0 mi NNE 12.7 mph 17.3 mph N/A   Clear
7:36 PM 12.2 °F -1.8 °F 3.2 °F 67% 30.22 in 10.0 mi NNE 11.5 mph - N/A   Clear
7:56 PM 14.0 °F 0.5 °F 3.2 °F 62% 30.23 in 10.0 mi NNE 11.5 mph 18.4 mph N/A   Clear
8:16 PM 12.2 °F 1.7 °F 1.4 °F 62% 30.23 in 10.0 mi NNE 6.9 mph - N/A   Clear
8:36 PM 12.2 °F - 1.4 °F 62% 30.24 in 10.0 mi Calm Calm - N/A   Clear
8:56 PM 14.0 °F 1.2 °F 1.4 °F 57% 30.24 in 10.0 mi NNE 10.4 mph - N/A   Clear
9:16 PM 12.2 °F -1.8 °F 1.4 °F 62% 30.24 in 10.0 mi NNE 11.5 mph - N/A   Clear
9:36 PM 12.2 °F 0.7 °F 1.4 °F 62% 30.24 in 10.0 mi NNE 8.1 mph 16.1 mph N/A   Clear
9:56 PM 12.2 °F 1.7 °F 1.4 °F 62% 30.24 in 10.0 mi NNE 6.9 mph - N/A   Clear
10:16 PM 10.4 °F -0.4 °F 1.4 °F 67% 30.24 in 10.0 mi NE 6.9 mph - N/A   Clear
10:36 PM 10.4 °F -2.4 °F 1.4 °F 67% 30.24 in 10.0 mi NNE 9.2 mph - N/A   Clear
10:56 PM 12.2 °F 0.7 °F 1.4 °F 62% 30.24 in 10.0 mi NNE 8.1 mph - N/A   Clear
11:16 PM 10.4 °F -4.1 °F 1.4 °F 67% 30.24 in 10.0 mi North 11.5 mph - N/A   Clear
11:36 PM 10.4 °F -4.1 °F 1.4 °F 67% 30.24 in 10.0 mi NNW 11.5 mph - N/A   Clear
11:56 PM 10.4 °F 0.8 °F -0.4 °F 62% 30.24 in 10.0 mi ENE 5.8 mph - N/A   Clear